Tracking 19909 objects as of 21-Oct-2019
HD Live streaming from Space Station
objects crossing your sky now

SL-19 R/B

Track SL-19 R/B now!
10-day predictions


NORAD ID: 39252
Int'l Code: 2013-048D
Perigee: 1,177.5 km
Apogee: 1,520.4 km
Inclination: 82.5 °
Period: 112.5 minutes
Semi major axis: 7719 km
RCS: Unknown
Launch date: September 11, 2013
Source: Commonwealth of Independent States (former USSR) (CIS)
Launch site: PLESETSK MISSILE AND SPACE COMPLEX (PKMTR)

Note: This is a ROCKET BODY
aabbcc
Your satellite tracking list
Your tracking list is empty




NASA's NSSDC Master Catalog

Two Line Element Set (TLE):
1 39252U 13048D   19293.93635773 +.00000006 +00000-0 -26947-4 0  9993
2 39252 082.4830 320.0123 0222093 099.9923 262.6319 12.79909028285267
Source of the keplerian elements: AFSPC